TimeEDT,TemperatureF,Dew PointF,Humidity,Sea Level PressureIn,VisibilityMPH,Wind Direction,Wind SpeedMPH,Gust SpeedMPH,PrecipitationIn,Events,Conditions,WindDirDegrees,DateUTC
12:51 AM,66.0,51.1,59,30.22,10.0,ESE,5.8,-,N/A,,Clear,110,2013-06-21 04:51:00
1:51 AM,62.1,52.0,70,30.23,10.0,Calm,Calm,-,N/A,,Clear,0,2013-06-21 05:51:00
2:51 AM,63.0,52.0,67,30.22,10.0,Calm,Calm,-,N/A,,Clear,0,2013-06-21 06:51:00
3:51 AM,63.0,52.0,67,30.22,10.0,Calm,Calm,-,N/A,,Clear,0,2013-06-21 07:51:00
4:51 AM,63.0,53.1,70,30.22,9.0,SSE,3.5,-,N/A,,Clear,150,2013-06-21 08:51:00
5:51 AM,62.1,53.1,72,30.23,7.0,Calm,Calm,-,N/A,,Clear,0,2013-06-21 09:51:00
6:51 AM,63.0,54.0,72,30.23,6.0,SE,3.5,-,N/A,,Haze,130,2013-06-21 10:51:00
7:51 AM,66.0,55.0,68,30.24,7.0,SSE,5.8,-,N/A,,Clear,160,2013-06-21 11:51:00
8:51 AM,71.1,55.9,59,30.25,8.0,SSE,6.9,-,N/A,,Partly Cloudy,150,2013-06-21 12:51:00
9:51 AM,73.9,55.9,53,30.26,8.0,SSW,3.5,-,N/A,,Partly Cloudy,200,2013-06-21 13:51:00
10:51 AM,77.0,55.9,48,30.25,9.0,Variable,3.5,-,N/A,,Scattered Clouds,0,2013-06-21 14:51:00
11:55 AM,80.6,55.4,42,30.27,10.0,South,9.2,-,N/A,,Partly Cloudy,190,2013-06-21 15:55:00
12:51 PM,81.0,55.9,42,30.26,10.0,Variable,3.5,-,N/A,,Partly Cloudy,0,2013-06-21 16:51:00
1:51 PM,82.0,57.0,42,30.26,10.0,Variable,4.6,-,N/A,,Partly Cloudy,0,2013-06-21 17:51:00
2:51 PM,84.9,55.9,37,30.24,10.0,West,9.2,-,N/A,,Scattered Clouds,260,2013-06-21 18:51:00
3:51 PM,84.0,55.0,37,30.22,10.0,SW,8.1,-,N/A,,Scattered Clouds,220,2013-06-21 19:51:00
4:51 PM,84.0,57.0,40,30.21,10.0,Variable,5.8,-,N/A,,Scattered Clouds,0,2013-06-21 20:51:00
5:51 PM,84.0,57.0,40,30.19,10.0,SW,5.8,-,N/A,,Scattered Clouds,220,2013-06-21 21:51:00
6:51 PM,82.0,57.0,42,30.19,10.0,SSW,5.8,-,N/A,,Scattered Clouds,210,2013-06-21 22:51:00
7:51 PM,79.0,59.0,50,30.18,10.0,SSW,4.6,-,N/A,,Mostly Cloudy,210,2013-06-21 23:51:00
8:51 PM,77.0,57.9,52,30.18,10.0,South,3.5,-,N/A,,Scattered Clouds,180,2013-06-22 00:51:00
9:51 PM,73.0,57.9,59,30.18,10.0,Calm,Calm,-,N/A,,Mostly Cloudy,0,2013-06-22 01:51:00
10:51 PM,73.0,57.9,59,30.18,10.0,SSE,4.6,-,N/A,,Mostly Cloudy,160,2013-06-22 02:51:00
11:51 PM,72.0,57.9,61,30.18,10.0,SSE,5.8,-,N/A,,Scattered Clouds,160,2013-06-22 03:51:00